KI4BSX Weather Reports


time (UTC)temp
C
wind
direction
speed
KPH
gust
KPH
rain 1hr
cm
rain 24hr
cm
rain mn
cm
humidity
%
barometer
mb
20260506014136 18 119 0.0 0.0 0.00 0.00 0.00 73 1016.0
20260506013635 18 119 0.0 0.0 0.00 0.00 0.00 73 1016.0
20260506013131 18 119 0.0 0.0 0.00 0.00 0.00 72 1016.1
20260506012627 18 119 1.6 1.6 0.00 0.00 0.00 71 1016.1
20260506012124 19 118 0.0 0.0 0.00 0.00 0.00 71 1016.1
20260506011621 19 118 0.0 0.0 0.00 0.00 0.00 70 1016.1
20260506011118 19 119 0.0 1.6 0.00 0.00 0.00 70 1016.2
20260506010612 20 118 0.0 0.0 0.00 0.00 0.00 70 1016.0
20260506010108 20 118 0.0 1.6 0.00 0.00 0.00 69 1016.2
20260506005605 20 119 0.0 1.6 0.00 0.00 0.00 68 1015.9
20260506005102 20 119 0.0 0.0 0.00 0.00 0.00 68 1016.1
20260506004559 20 119 0.0 0.0 0.00 0.00 0.00 66 1016.0
20260506004055 20 119 0.0 1.6 0.00 0.00 0.00 65 1016.1
20260506003551 20 119 0.0 1.6 0.00 0.00 0.00 65 1016.1
20260506003048 20 119 0.0 1.6 0.00 0.00 0.00 64 1016.0
20260506002544 21 119 0.0 1.6 0.00 0.00 0.00 64 1016.0
20260506002040 21 117 0.0 1.6 0.00 0.00 0.00 64 1015.7
20260506001536 21 159 0.0 1.6 0.00 0.00 0.00 62 1016.1
20260506001034 21 160 0.0 1.6 0.00 0.00 0.00 62 1016.1
20260506000531 21 120 0.0 0.0 0.00 0.00 0.00 61 1016.2
20260506000028 21 120 1.6 1.6 0.00 0.00 0.00 59 1015.9
20260505235526 22 120 0.0 1.6 0.00 0.00 0.00 59 1016.2
20260505235022 22 120 0.0 1.6 0.00 0.00 0.00 58 1015.9
20260505234520 22 120 0.0 1.6 0.00 0.00 0.00 56 1015.9
20260505234017 22 120 0.0 1.6 0.00 0.00 0.00 55 1015.9
20260505233514 22 119 0.0 1.6 0.00 0.00 0.00 54 1016.0
20260505233011 23 117 0.0 1.6 0.00 0.00 0.00 52 1015.9
20260505232509 23 117 0.0 1.6 0.00 0.00 0.00 51 1016.0
20260505232006 25 25 1.6 3.2 0.00 0.00 0.00 49 1015.6
20260505231503 25 111 0.0 1.6 0.00 0.00 0.00 48 1015.7
20260505231002 26 58 1.6 3.2 0.00 0.00 0.00 46 1015.9
20260505230459 26 141 1.6 1.6 0.00 0.00 0.00 46 1015.5
20260505225955 27 67 1.6 3.2 0.00 0.00 0.00 45 1015.6
20260505225452 26 187 0.0 1.6 0.00 0.00 0.00 45 1015.7
20260505224948 26 151 1.6 3.2 0.00 0.00 0.00 46 1016.0
20260505224445 25 46 3.2 3.2 0.00 0.00 0.00 46 1015.6
20260505223942 25 69 1.6 3.2 0.00 0.00 0.00 45 1015.6
20260505223439 25 25 4.8 4.8 0.00 0.00 0.00 44 1015.6
20260505222935 26 14 3.2 4.8 0.00 0.00 0.00 43 1016.0
20260505222432 26 38 1.6 6.4 0.00 0.00 0.00 42 1016.1
20260505221928 27 325 1.6 9.7 0.00 0.00 0.00 42 1016.1
20260505221425 26 38 3.2 9.7 0.00 0.00 0.00 41 1016.0
20260505220922 27 132 1.6 6.4 0.00 0.00 0.00 41 1016.0
20260505220419 27 324 1.6 4.8 0.00 0.00 0.00 40 1015.7
20260505215917 27 36 1.6 3.2 0.00 0.00 0.00 41 1015.5
20260505215415 27 8 3.2 4.8 0.00 0.00 0.00 41 1015.5
20260505214913 26 55 1.6 3.2 0.00 0.00 0.00 41 1015.9
20260505214410 27 28 4.8 4.8 0.00 0.00 0.00 41 1015.7
20260505213907 27 54 8.0 11.3 0.00 0.00 0.00 40 1015.7
20260505213405 27 66 1.6 6.4 0.00 0.00 0.00 40 1015.7
20260505212901 27 19 1.6 3.2 0.00 0.00 0.00 39 1016.0
20260505212358 27 96 6.4 9.7 0.00 0.00 0.00 39 1016.0
20260505211854 27 130 1.6 9.7 0.00 0.00 0.00 39 1015.9
20260505211352 28 332 3.2 3.2 0.00 0.00 0.00 39 1015.9
20260505210848 27 343 3.2 6.4 0.00 0.00 0.00 40 1015.6
20260505210345 27 43 1.6 6.4 0.00 0.00 0.00 39 1016.0
20260505205842 27 60 1.6 3.2 0.00 0.00 0.00 39 1015.9
20260505205340 26 64 1.6 4.8 0.00 0.00 0.00 40 1015.7
20260505204837 26 51 3.2 11.3 0.00 0.00 0.00 39 1016.2
20260505204335 27 161 1.6 9.7 0.00 0.00 0.00 38 1016.2
20260505203832 27 113 4.8 6.4 0.00 0.00 0.00 38 1016.1
20260505203328 27 155 4.8 6.4 0.00 0.00 0.00 39 1016.3
20260505202824 26 331 3.2 4.8 0.00 0.00 0.00 39 1016.3
20260505202320 26 49 3.2 16.1 0.00 0.00 0.00 39 1016.3
20260505201817 27 52 8.0 12.9 0.00 0.00 0.00 39 1016.3
20260505201315 27 39 1.6 6.4 0.00 0.00 0.00 39 1016.3
20260505200813 27 8 4.8 6.4 0.00 0.00 0.00 40 1016.4
20260505200309 27 33 1.6 4.8 0.00 0.00 0.00 40 1016.5
20260505195805 27 69 6.4 11.3 0.00 0.00 0.00 40 1016.5
20260505195305 27 64 0.0 4.8 0.00 0.00 0.00 40 1016.5
20260505194759 27 12 3.2 16.1 0.00 0.00 0.00 40 1016.8
20260505194256 26 113 1.6 14.5 0.00 0.00 0.00 40 1016.8
20260505193751 26 16 1.6 4.8 0.00 0.00 0.00 40 1017.1
20260505193249 27 94 4.8 12.9 0.00 0.00 0.00 41 1017.0
20260505192747 26 50 3.2 11.3 0.00 0.00 0.00 41 1017.1
20260505192245 26 356 3.2 14.5 0.00 0.00 0.00 40 1017.2
20260505191743 26 307 3.2 17.7 0.00 0.00 0.00 40 1017.0
20260505191241 26 84 1.6 4.8 0.00 0.00 0.00 41 1017.0
20260505190737 26 62 3.2 12.9 0.00 0.00 0.00 41 1017.4
20260505190232 26 41 6.4 9.7 0.00 0.00 0.00 41 1017.6
20260505185728 27 73 3.2 12.9 0.00 0.00 0.00 40 1017.6
20260505185225 27 119 1.6 3.2 0.00 0.00 0.00 42 1017.5
20260505184721 26 230 3.2 9.7 0.00 0.00 0.00 40 1017.7
20260505184219 26 21 3.2 4.8 0.00 0.00 0.00 41 1017.7
20260505183715 26 351 1.6 3.2 0.00 0.00 0.00 41 1018.0
20260505183213 26 296 1.6 4.8 0.00 0.00 0.00 40 1017.9
20260505182709 27 66 3.2 9.7 0.00 0.00 0.00 39 1017.8
20260505182206 26 329 3.2 6.4 0.00 0.00 0.00 40 1017.9
20260505181702 26 79 3.2 14.5 0.00 0.00 0.00 40 1017.9
20260505181200 26 273 1.6 4.8 0.00 0.00 0.00 41 1018.0
20260505180656 26 16 3.2 6.4 0.00 0.00 0.00 41 1018.0
20260505180153 26 333 0.0 6.4 0.00 0.00 0.00 41 1018.0
20260505175649 26 337 1.6 6.4 0.00 0.00 0.00 40 1018.0
20260505175146 27 352 0.0 3.2 0.00 0.00 0.00 42 1018.2
20260505174642 26 82 4.8 4.8 0.00 0.00 0.00 41 1018.1
20260505174138 26 36 4.8 9.7 0.00 0.00 0.00 41 1018.4
20260505173635 26 225 4.8 4.8 0.00 0.00 0.00 40 1018.3
20260505173132 26 60 3.2 6.4 0.00 0.00 0.00 41 1018.6
20260505172630 26 34 1.6 11.3 0.00 0.00 0.00 41 1018.5
20260505172126 26 62 9.7 16.1 0.00 0.00 0.00 42 1018.5
20260505171621 25 35 4.8 6.4 0.00 0.00 0.00 42 1018.5
20260505171118 25 54 6.4 6.4 0.00 0.00 0.00 43 1018.5
20260505170615 25 83 3.2 17.7 0.00 0.00 0.00 44 1018.7
20260505170111 25 300 3.2 16.1 0.00 0.00 0.00 47 1019.0
20260505165606 24 254 3.2 6.4 0.00 0.00 0.00 49 1018.7
20260505165102 23 338 3.2 4.8 0.00 0.00 0.00 49 1018.7
20260505164558 24 325 8.0 14.5 0.00 0.00 0.00 48 1019.0
20260505164056 24 302 6.4 9.7 0.00 0.00 0.00 48 1018.9
20260505163555 24 97 3.2 6.4 0.00 0.00 0.00 48 1018.9
20260505163051 24 42 4.8 4.8 0.00 0.00 0.00 48 1018.8
20260505162544 25 40 4.8 14.5 0.00 0.00 0.00 48 1018.9
20260505162041 25 60 3.2 4.8 0.00 0.00 0.00 48 1018.8
20260505161538 25 231 4.8 9.7 0.00 0.00 0.00 49 1018.8
20260505161035 25 48 1.6 4.8 0.00 0.00 0.00 49 1019.0
20260505160533 24 132 1.6 4.8 0.00 0.00 0.00 49 1018.9
20260505153009 22 131 1.6 3.2 0.00 0.00 0.00 61 1019.4
20260505152507 22 64 3.2 9.7 0.00 0.00 0.00 62 1019.5
20260505152002 22 354 3.2 3.2 0.00 0.00 0.00 62 1019.5
20260505151457 22 292 3.2 4.8 0.00 0.00 0.00 63 1019.6
20260505150955 22 346 3.2 4.8 0.00 0.00 0.00 65 1019.4
20260505150452 22 80 1.6 3.2 0.00 0.00 0.00 65 1019.3
20260505140416 17 318 3.2 4.8 0.00 0.00 0.00 82 1019.3
20260505124823 15 92 0.0 0.0 0.00 0.00 0.00 95 1018.9
20260505124315 13 93 0.0 0.0 0.00 0.00 0.00 96 1018.9
20260505123811 12 93 0.0 0.0 0.00 0.00 0.00 96 1018.8
20260505123308 11 93 0.0 0.0 0.00 0.00 0.00 96 1018.8
20260505122803 10 93 0.0 1.6 0.00 0.00 0.00 95 1018.8
20260505122301 10 92 0.0 0.0 0.00 0.00 0.00 95 1019.0
20260505121757 9 92 0.0 0.0 0.00 0.00 0.00 95 1018.9
20260505121254 8 93 0.0 0.0 0.00 0.00 0.00 95 1018.9
20260505120750 8 93 0.0 0.0 0.00 0.00 0.00 95 1018.8
20260505120247 8 93 0.0 0.0 0.00 0.00 0.00 95 1018.7
20260505115746 8 93 0.0 0.0 0.00 0.00 0.00 95 1018.8
20260505115243 7 93 0.0 0.0 0.00 0.00 0.00 95 1018.9
20260505114741 7 93 0.0 0.0 0.00 0.00 0.00 95 1018.7
20260505114236 7 93 0.0 0.0 0.00 0.00 0.00 95 1018.4
20260505113733 7 93 0.0 0.0 0.00 0.00 0.00 95 1018.6
20260505113230 7 93 0.0 0.0 0.00 0.00 0.00 95 1018.7
20260505112726 6 93 0.0 0.0 0.00 0.00 0.00 94 1018.6
20260505112223 6 93 0.0 0.0 0.00 0.00 0.00 94 1018.3
20260505111718 6 92 0.0 0.0 0.00 0.00 0.00 94 1018.2
20260505111214 6 93 0.0 0.0 0.00 0.00 0.00 94 1018.1
20260505110710 6 93 0.0 0.0 0.00 0.00 0.00 94 1017.9
20260505110208 6 93 0.0 0.0 0.00 0.00 0.00 94 1018.1
20260505102143 6 91 0.0 0.0 0.00 0.00 0.00 94 1018.2
20260505101642 6 91 0.0 0.0 0.00 0.00 0.00 93 1017.9
20260505101138 6 91 0.0 0.0 0.00 0.00 0.00 93 1018.0
20260505100634 6 91 0.0 0.0 0.00 0.00 0.00 93 1018.0
20260505100131 6 91 0.0 0.0 0.00 0.00 0.00 93 1018.0
20260505095627 6 91 0.0 0.0 0.00 0.00 0.00 93 1017.9
20260505095124 7 90 0.0 0.0 0.00 0.00 0.00 93 1018.2
20260505094620 7 92 0.0 1.6 0.00 0.00 0.00 93 1018.1
20260505094116 7 92 0.0 0.0 0.00 0.00 0.00 93 1018.0
20260505093612 7 91 0.0 1.6 0.00 0.00 0.00 93 1018.0
20260505093110 7 302 0.0 0.0 0.00 0.00 0.00 93 1017.9
20260505092607 7 0 1.6 1.6 0.00 0.00 0.00 93 1017.9
20260505092106 7 1 0.0 0.0 0.00 0.00 0.00 93 1017.7
20260505091602 7 1 0.0 0.0 0.00 0.00 0.00 93 1017.8
20260505091101 7 1 0.0 0.0 0.00 0.00 0.00 93 1017.9
20260505090558 7 1 0.0 0.0 0.00 0.00 0.00 92 1017.9
20260505090056 7 1 0.0 0.0 0.00 0.00 0.00 92 1017.9
20260505085553 7 1 0.0 0.0 0.00 0.00 0.00 92 1018.1
20260505085052 7 1 0.0 0.0 0.00 0.00 0.00 92 1018.1
20260505084549 7 1 0.0 0.0 0.00 0.00 0.00 92 1017.8
20260505084047 7 1 0.0 0.0 0.00 0.00 0.00 92 1017.8
20260505083543 7 0 0.0 0.0 0.00 0.00 0.00 92 1017.7
20260505083040 7 0 0.0 0.0 0.00 0.00 0.00 92 1017.8
20260505082536 7 0 0.0 1.6 0.00 0.00 0.00 92 1018.0
20260505082033 7 0 0.0 0.0 0.00 0.00 0.00 92 1018.2
20260505081529 7 0 0.0 0.0 0.00 0.00 0.00 92 1017.9
20260505081027 8 0 0.0 0.0 0.00 0.00 0.00 92 1018.0
20260505080522 8 0 0.0 0.0 0.00 0.00 0.00 91 1017.9
20260505080020 8 0 0.0 0.0 0.00 0.00 0.00 91 1017.7
20260505075515 8 0 0.0 0.0 0.00 0.00 0.00 91 1017.8
20260505075013 8 101 0.0 3.2 0.00 0.00 0.00 91 1017.9
20260505074510 8 133 0.0 0.0 0.00 0.00 0.00 91 1017.6
20260505074007 8 133 0.0 0.0 0.00 0.00 0.00 91 1017.8
20260505073504 8 133 0.0 0.0 0.00 0.00 0.00 91 1017.5
20260505073002 8 133 0.0 0.0 0.00 0.00 0.00 91 1017.3
20260505072457 8 133 0.0 0.0 0.00 0.00 0.00 91 1017.7
20260505071954 8 133 0.0 0.0 0.00 0.00 0.00 90 1017.4
20260505071450 8 133 0.0 0.0 0.00 0.00 0.00 90 1017.5
20260505070948 8 133 0.0 0.0 0.00 0.00 0.00 90 1017.5
20260505070444 8 133 0.0 0.0 0.00 0.00 0.00 90 1017.6
20260505065940 8 133 0.0 0.0 0.00 0.00 0.00 90 1017.6
20260505065437 8 133 0.0 0.0 0.00 0.00 0.00 90 1017.5
20260505064934 9 133 0.0 0.0 0.00 0.00 0.00 90 1017.6
20260505064431 9 133 0.0 0.0 0.00 0.00 0.00 90 1017.7
20260505063929 9 133 0.0 0.0 0.00 0.00 0.00 90 1017.6
20260505063425 9 133 0.0 0.0 0.00 0.00 0.00 90 1017.7
20260505062922 9 133 0.0 0.0 0.00 0.00 0.00 89 1017.7
20260505062419 9 133 0.0 0.0 0.00 0.00 0.00 89 1017.9
20260505061915 10 132 0.0 0.0 0.00 0.00 0.00 89 1017.9
20260505061414 10 132 0.0 0.0 0.00 0.00 0.00 89 1017.8
20260505060911 10 132 0.0 0.0 0.00 0.00 0.00 89 1017.9
20260505060408 10 132 0.0 0.0 0.00 0.00 0.00 89 1017.9
20260505055904 10 132 0.0 0.0 0.00 0.00 0.00 89 1017.8
20260505055400 10 132 0.0 0.0 0.00 0.00 0.00 89 1017.8
20260505054857 10 132 0.0 0.0 0.00 0.00 0.00 88 1017.8
20260505054355 11 132 0.0 0.0 0.00 0.00 0.00 88 1017.6
20260505053853 11 132 0.0 0.0 0.00 0.00 0.00 88 1017.6
20260505053349 11 132 0.0 0.0 0.00 0.00 0.00 88 1017.9
20260505052846 11 131 0.0 0.0 0.00 0.00 0.00 88 1018.0
20260505052343 11 131 0.0 0.0 0.00 0.00 0.00 88 1017.6
20260505051840 11 131 0.0 0.0 0.00 0.00 0.00 88 1017.8
20260505051338 11 131 0.0 0.0 0.00 0.00 0.00 88 1018.0
20260505050835 11 131 0.0 0.0 0.00 0.00 0.00 88 1017.9
20260505050334 11 131 0.0 1.6 0.00 0.00 0.00 88 1017.7
20260505041301 11 135 0.0 0.0 0.00 0.00 0.00 86 1017.6
20260505040758 11 135 0.0 0.0 0.00 0.00 0.00 86 1017.9
20260505040255 11 135 0.0 0.0 0.00 0.00 0.00 86 1018.1
20260505035752 11 135 0.0 0.0 0.00 0.00 0.00 86 1018.0
20260505035248 11 135 0.0 0.0 0.00 0.00 0.00 85 1017.9
20260505034745 12 136 0.0 1.6 0.00 0.00 0.00 85 1018.1
20260505034242 12 136 0.0 1.6 0.00 0.00 0.00 85 1018.1
20260505033738 12 136 0.0 1.6 0.00 0.00 0.00 85 1018.0
20260505033236 12 137 0.0 1.6 0.00 0.00 0.00 84 1018.1
20260505032734 12 137 0.0 1.6 0.00 0.00 0.00 84 1018.1
20260505032229 12 142 1.6 1.6 0.00 0.00 0.00 84 1018.0
20260505031727 12 144 0.0 0.0 0.00 0.00 0.00 83 1018.2
20260505031223 12 144 0.0 0.0 0.00 0.00 0.00 83 1018.1
20260505030720 12 144 0.0 0.0 0.00 0.00 0.00 83 1018.2
20260505030216 12 144 0.0 0.0 0.00 0.00 0.00 83 1017.9
20260505025712 12 144 0.0 0.0 0.00 0.00 0.00 82 1018.0
20260505025211 12 144 0.0 0.0 0.00 0.00 0.00 82 1017.9
20260505024709 13 144 0.0 0.0 0.00 0.00 0.00 82 1018.0
20260505024205 13 144 0.0 0.0 0.00 0.00 0.00 81 1018.1
20260505023703 13 144 0.0 0.0 0.00 0.00 0.00 81 1018.0
20260505023200 13 144 0.0 0.0 0.00 0.00 0.00 81 1018.1
20260505022658 13 145 0.0 0.0 0.00 0.00 0.00 80 1018.0
20260505022154 13 145 0.0 0.0 0.00 0.00 0.00 80 1018.0
20260505021651 13 144 0.0 1.6 0.00 0.00 0.00 80 1018.1
20260505021148 13 144 0.0 0.0 0.00 0.00 0.00 79 1018.0
20260505020643 13 145 0.0 0.0 0.00 0.00 0.00 79 1017.7
20260505020139 14 146 0.0 1.6 0.00 0.00 0.00 78 1017.9
20260505015637 14 157 0.0 1.6 0.00 0.00 0.00 78 1017.6
20260505015133 14 159 0.0 1.6 0.00 0.00 0.00 77 1017.6
20260505014630 14 162 0.0 1.6 0.00 0.00 0.00 77 1017.8